Regional Weather Roundup
Issued by NWS

Home | Current Version | Previous Version | Graphics & Text | Print | Product List | Glossary On
Versions: 1 2 3 4 5 6 7 8 9 10 11 12 13 14 15 16 17 18 19 20 21 22 23 24 25 26 27 28 29 30 31 32 33 34 35 36 37 38 39 40 41 42 43 44 45 46 47 48 49 50
000
ASUS45 KCYS 021710
RWRWY

WYOMING REGIONAL WEATHER ROUNDUP
NATIONAL WEATHER SERVICE CHEYENNE WY
1100 AM MDT TUE SEP 02 2014

NOTE:  "FAIR" INDICATES FEW OR NO CLOUDS BELOW 12,000 FEET
WITH NO SIGNIFICANT WEATHER AND/OR OBSTRUCTIONS TO VISIBILITY.

WYZ001-021800-
YELLOWSTONE NATIONAL PARK

CITY           SKY/WX    TMP DP  RH WIND       PRES   REMARKS
LK YELLOWSTONE   N/A     55  34  45 VRB5G17   30.19F
W YELLOWSTONE  NOT AVBL

$$
WYZ002>013-054>058-071-098>099-021800-
NORTHERN WYOMING

CITY           SKY/WX    TMP DP  RH WIND       PRES   REMARKS
JACKSON        SUNNY     57  41  54 S6        30.13F
CODY             N/A    N/A N/A N/A MISG        N/A
GREYBULL       SUNNY    N/A N/A N/A MISG      29.95F
WORLAND        SUNNY     68  42  38 CALM      29.95F
SHERIDAN       SUNNY     69  42  37 N6        29.95S
BUFFALO        MOSUNNY   69  42  37 SE6       29.98S
GILLETTE       MOSUNNY   72  43  35 SW13      29.96S
HULETT         FAIR      70  43  37 MISG      29.96
NEWCASTLE      FAIR      66  39  37 SE9       30.00

$$
WYZ014>020-022>026-101>103-021800-
CENTRAL WYOMING

CITY           SKY/WX    TMP DP  RH WIND       PRES   REMARKS
BIG PINEY      SUNNY     58  36  43 VRB3      30.20F
PINEDALE       SUNNY     61  32  33 E5        30.21F
DUBOIS         FAIR      63  30  29 NW14G24   30.13S
LANDER         SUNNY     67  31  26 S7        30.04F
RIVERTON       SUNNY     64  32  30 S7        30.05F
CASPER         SUNNY     70  32  24 SW20G28   30.05S
DOUGLAS        SUNNY     69  44  40 W6        30.03F

$$
WYZ021-027>030-104>119-021800-
SOUTHERN WYOMING

CITY           SKY/WX    TMP DP  RH WIND       PRES   REMARKS
EVANSTON       SUNNY     65  33  30 W6        30.19F
KEMMERER       SUNNY     64  32  29 CALM      30.20F
FORT BRIDGER   FAIR      65  31  28 SE6       30.22S
ROCK SPRINGS   SUNNY     65  33  30 VRB3      30.19F
DIXON          FAIR      64  38  38 CALM      30.23F
RAWLINS        SUNNY     68  26  20 W21G30    30.17F
SARATOGA       FAIR      64  34  32 S9        30.21F
LARAMIE        SUNNY     66  32  28 SW14G23   30.19S
CHEYENNE       SUNNY     70  41  34 S13       30.13F
TORRINGTON     SUNNY     74  45  35 W10       30.01F
PINE BLUFFS    FAIR      70  45  40 SW9       30.10S

$$


USA.gov is the U.S. government's official web portal to all federal, state and local government web resources and services.